CAPE
1 1 2 1 1 1 2 2 2 1 1 1 2 1 2 2 0 0 0 0 0 219 540 59 39 6 0 0 57 41 3 42 149 388 436 710 922 1214 924 1014 858 805 891 927 870
2 2 2 2 1 1 1 1 2 1 2 2 2 1 1 1 0 0 0 0 254 940 0 0 0 0 0 0 0 0 10 0 18 365 388 849 1060 1267 807 1069 1053 1021 951 1033 825
3 3 2 1 3 1 0 1 1 0 1 2 2 0 0 0 0 0 0 818 790 616 0 0 0 0 0 0 0 0 0 0 0 6 216 849 957 933 1086 1173 1145 1177 1113 1037 1102
2 1 2 3 5 3 1 1 1 0 0 1 1 0 0 0 0 0 223 746 831 0 0 0 0 0 0 0 0 0 0 0 0 0 427 856 684 888 1179 1155 1156 1197 1091 1167 1279
3 3 1 3 1 5 4 1 2 0 1 1 1 0 0 0 0 0 0 85 0 0 0 0 0 0 0 0 0 0 0 0 0 0 420 546 576 749 1065 1097 1077 1062 1097 1271 1307
4 4 0 0 0 3 3 2 0 0 0 1 1 0 0 0 0 0 0 0 0 0 0 0 0 0 0 0 0 0 0 0 0 0 390 406 326 923 1147 1020 1030 1032 1130 1299 1279
2 1 3 4 1 1 4 3 1 0 0 2 0 0 0 0 0 0 0 0 0 0 0 0 0 0 0 0 0 0 0 0 0 0 1 343 504 552 1054 1135 1096 1052 1073 1143 1236
2 3 4 4 5 1 1 2 2 2 1 0 0 0 0 0 0 0 0 0 0 0 0 0 0 0 0 0 0 0 0 0 0 0 0 7 11 250 1174 1199 1187 1100 1078 1001 1173
2 3 3 1 4 2 3 1 0 0 0 0 0 0 0 0 0 0 0 0 0 0 0 0 0 0 0 0 0 0 0 0 0 0 0 0 13 584 1118 1181 1203 1046 1151 1222 1313
0 2 3 3 3 2 1 0 0 0 0 0 0 0 0 0 0 0 0 0 0 0 0 0 0 0 0 0 0 0 0 0 0 0 127 17 147 647 1222 1172 1238 1130 1091 1102 1064
0 1 2 3 3 3 0 0 0 0 0 0 0 0 0 0 0 0 0 0 0 0 0 0 0 0 0 0 0 0 0 0 0 0 300 302 338 622 1111 1318 1263 1218 1191 1158 1105
1 0 2 3 2 0 0 0 0 0 0 0 0 0 0 0 0 0 0 0 0 0 0 0 0 0 0 0 0 0 0 0 0 147 317 278 426 485 735 1465 1484 1389 1351 1305 1262
1 0 1 1 0 0 0 0 0 0 0 0 0 0 0 0 0 0 0 0 0 0 0 0 0 0 0 0 0 0 0 0 0 98 102 209 408 262 82 100 1047 1290 1419 1330 1395
1 0 1 1 0 0 0 0 0 0 0 0 0 0 0 0 0 0 0 0 0 0 0 0 0 0 0 0 0 0 0 0 0 21 43 22 57 281 156 151 17 834 1111 1213 1252
0 0 0 0 0 0 0 0 0 0 0 0 0 0 0 0 0 0 0 0 0 0 0 0 0 0 0 0 0 0 0 0 0 0 37 9 139 326 3 153 122 580 337 319 759
0 0 0 0 0 0 0 0 0 0 0 0 0 0 0 0 0 0 0 0 0 0 0 0 0 0 0 0 0 0 0 0 0 0 0 0 56 57 70 238 61 130 91 214 334
0 0 2 0 0 0 0 0 0 0 0 0 0 0 0 0 0 0 0 0 0 0 0 0 0 0 0 0 0 0 0 0 0 0 0 0 10 8 2 2 24 92 186 267 1194
0 0 0 0 0 0 0 0 0 0 0 0 0 0 0 0 0 0 0 0 0 0 0 0 0 0 0 0 0 0 0 0 0 0 0 0 160 59 70 38 221 279 249 683 1700
0 0 0 0 0 0 0 0 0 0 0 0 0 0 0 0 0 0 0 0 0 0 0 0 0 0 0 0 0 0 0 0 0 0 0 2 192 271 127 280 169 274 529 1273 1708
0 0 0 0 0 0 0 0 0 0 0 0 0 0 0 0 0 0 0 0 0 0 0 0 0 0 0 0 0 0 0 0 0 4 0 56 244 344 480 381 226 317 440 1391 1692
0 0 0 0 0 0 0 0 0 0 0 0 0 0 0 0 0 0 0 0 0 0 0 0 0 0 0 0 0 0 0 0 0 0 0 5 41 287 420 291 369 384 419 1473 1790
0 0 0 0 0 0 0 0 0 0 0 0 0 0 0 0 0 0 0 0 0 0 0 0 0 0 0 0 0 0 0 3 0 227 167 273 220 34 341 215 355 331 635 1782 1885
0 0 0 0 0 0 0 0 0 0 0 0 0 0 0 0 0 0 0 0 0 0 0 0 0 0 0 0 2 42 0 0 0 120 520 299 139 129 292 227 167 271 1473 2011 1975
0 0 0 0 0 0 0 0 0 0 0 0 0 0 0 6 0 0 0 0 0 0 48 0 0 0 0 0 30 182 60 4 63 298 339 326 310 233 349 314 187 519 1582 2021 1811
0 0 1 0 0 0 0 0 9 275 112 33 18 5 12 119 0 0 0 0 0 10 0 0 0 0 0 0 0 105 110 16 62 72 193 188 279 289 3 236 282 1054 1588 1770 1435
0 0 0 0 0 0 0 18 209 349 285 132 108 272 176 170 90 85 1 0 0 0 0 0 0 47 91 82 9 126 29 2 16 5 4 245 415 217 70 248 329 1089 1380 1551 1238
0 0 0 0 0 0 35 133 185 203 248 292 263 318 363 260 12 1 0 0 0 0 0 0 4 55 5 126 153 231 256 150 240 199 306 369 341 47 524 199 440 970 1198 1468 1105
CIN
0 0 0 0 0 0 0 0 0 0 0 0 0 0 0 0 0 0 0 0 0 -484 -471 -430 -413 -301 -9 0 -319 -246 -97 -48 -42 -45 -32 -109 -79 -89 -105 -91 -83 -114 -104 -128 -200
0 0 0 0 0 0 0 0 0 0 0 0 0 0 0 0 0 0 0 0 -418 -492 0 0 0 0 0 0 0 0 -160 0 -115 -44 -49 -108 -82 -70 -80 -77 -93 -161 -218 -187 -191
0 0 0 0 0 0 0 0 0 0 0 0 0 0 0 0 0 0 0 -433 -489 -474 0 0 0 0 0 0 0 0 0 0 0 -97 -84 -97 -92 -99 -70 -61 -56 -104 -216 -182 -128
0 0 0 0 0 0 0 0 0 0 0 0 0 0 0 0 0 0 -447 -438 -468 0 0 0 0 0 0 0 0 0 0 0 0 0 -107 -96 -108 -88 -69 -49 -72 -136 -207 -172 -124
0 0 0 0 0 0 0 0 0 0 0 0 0 0 0 0 0 0 0 -298 0 0 0 0 0 0 0 0 0 0 0 0 0 0 -100 -140 -116 -82 -94 -118 -142 -203 -223 -144 -99
0 0 0 0 0 0 0 0 0 0 0 0 0 0 0 0 0 0 0 0 0 0 0 0 0 0 0 0 0 0 0 0 0 0 -83 -90 -149 -106 -112 -180 -198 -217 -195 -147 -110
0 0 0 0 0 0 0 0 0 0 0 0 0 0 0 0 0 0 0 0 0 0 0 0 0 0 0 0 0 0 0 0 0 0 -2 -110 -131 -90 -126 -179 -181 -168 -197 -171 -142
0 0 0 0 0 0 0 0 0 0 0 0 0 0 0 0 0 0 0 0 0 0 0 0 0 0 0 0 0 0 0 0 0 0 0 -118 -27 -130 -207 -147 -166 -165 -183 -190 -172
0 0 0 0 0 0 0 0 0 0 0 0 0 0 0 0 0 0 0 0 0 0 0 0 0 0 0 0 0 0 0 0 0 0 0 0 -50 -276 -226 -146 -156 -158 -157 -160 -140
0 0 0 0 0 0 0 0 0 0 0 0 0 0 0 0 0 0 0 0 0 0 0 0 0 0 0 0 0 0 0 0 0 0 -153 -99 -109 -263 -221 -172 -141 -141 -158 -152 -152
0 0 0 0 0 0 0 0 0 0 0 0 0 0 0 0 0 0 0 0 0 0 0 0 0 0 0 0 0 0 0 0 0 0 -131 -192 -165 -214 -213 -172 -164 -125 -120 -105 -125
0 0 0 0 0 0 0 0 0 0 0 0 0 0 0 0 0 0 0 0 0 0 0 0 0 0 0 0 0 0 0 0 0 -191 -120 -175 -135 -237 -240 -151 -138 -125 -105 -102 -88
0 0 0 0 0 0 0 0 0 0 0 0 0 0 0 0 0 0 0 0 0 0 0 0 0 0 0 0 0 0 0 0 0 -146 -205 -131 -62 -157 -281 -348 -224 -174 -124 -109 -86
0 0 0 0 0 0 0 0 0 0 0 0 0 0 0 0 0 0 0 0 0 0 0 0 0 0 0 0 0 0 0 0 0 -78 -12 -58 -6 -111 -185 -233 -331 -187 -141 -91 -81
0 0 -1 0 0 0 0 0 0 0 0 0 0 0 0 0 0 0 0 0 0 0 0 0 0 0 0 0 0 0 0 0 0 0 -88 -60 -31 -12 -120 -184 -204 -197 -165 -152 -96
0 0 -1 0 0 0 0 0 0 0 0 0 0 0 0 0 0 0 0 0 0 0 0 0 0 0 0 0 0 0 0 0 0 0 0 0 -17 -29 -110 -126 -185 -245 -203 -165 -132
0 0 0 0 0 0 0 0 0 0 0 0 0 0 0 0 0 0 0 0 0 0 0 0 0 0 0 0 0 0 0 0 0 0 0 0 -60 -31 -83 -163 -263 -201 -148 -137 -94
0 0 0 0 0 0 0 0 0 0 0 0 0 0 0 0 0 0 0 0 0 0 0 0 0 0 0 0 0 0 0 0 0 0 0 0 -24 -23 -302 -342 -340 -281 -200 -127 -99
0 0 0 0 0 0 0 0 0 0 0 0 0 0 0 0 0 0 0 0 0 0 0 0 0 0 0 0 0 0 0 0 0 -1 0 -9 -91 -132 -269 -287 -293 -249 -191 -99 -91
0 0 0 0 0 0 0 0 0 0 0 0 0 0 0 0 0 0 0 0 0 0 0 0 0 0 0 0 0 0 0 0 0 -30 0 -54 -80 -21 -129 -168 -192 -179 -179 -93 -94
0 0 0 0 0 0 0 0 0 0 0 0 0 0 0 0 0 0 0 0 0 0 0 0 0 0 0 0 0 0 0 0 0 0 0 -15 -17 -133 -138 -189 -169 -156 -173 -109 -91
0 0 0 0 0 0 0 0 0 0 0 0 0 0 0 0 0 0 0 0 0 0 0 0 0 0 0 0 0 0 0 -58 0 -46 -146 -67 -14 -225 -237 -283 -179 -154 -186 -129 -141
0 0 0 0 0 0 0 0 0 0 0 0 0 0 0 0 0 0 0 0 0 0 0 0 0 0 0 0 -25 -93 0 0 -23 -92 -73 -7 -6 -288 -312 -311 -280 -287 -199 -176 -200
0 0 0 0 0 0 0 0 0 0 0 0 0 0 0 -74 0 0 0 0 0 0 -163 0 0 0 0 0 -42 -57 -145 -132 -24 -10 -56 -24 -20 -74 -184 -280 -389 -405 -221 -203 -244
0 0 0 0 0 0 0 0 -184 -128 -234 -306 -103 -114 -181 -174 0 0 0 0 0 -366 0 0 0 0 0 0 0 -89 -59 -158 -74 -76 -8 -29 -57 -47 -172 -285 -309 -359 -297 -286 -308
0 0 0 0 0 0 0 -162 -124 -122 -182 -187 -178 -155 -255 -265 -347 -277 -20 0 0 0 0 0 0 -169 -117 -218 -182 -87 -84 -60 -69 -11 -175 -90 -54 -184 -434 -389 -437 -393 -379 -332 -346
0 0 0 0 0 0 -102 -87 -131 -225 -180 -237 -223 -199 -152 -260 -500 -153 0 0 0 0 0 0 -197 -121 -20 -220 -112 -34 -38 -65 -84 -118 -61 -22 -27 -199 -190 -352 -378 -394 -360 -327 -391
Wind_Speed
15 15 16 16 16 16 16 16 16 16 16 17 18 19 17 17 15 3 5 4 2 8 6 6 2 2 2 2 2 2 1 2 3 4 3 6 5 4 5 8 3 2 2 10 21
15 15 15 16 16 16 16 16 16 16 16 16 17 18 17 17 3 5 5 9 4 11 3 1 4 2 0 1 2 1 2 3 2 6 2 7 7 9 5 6 4 6 11 19 19
15 16 16 16 16 16 17 16 15 15 15 15 17 17 16 13 4 2 6 6 9 9 2 2 1 2 1 0 3 3 3 3 6 9 3 7 5 5 5 6 7 9 17 19 18
15 15 16 17 17 17 17 17 15 14 14 14 16 17 18 4 3 2 7 3 9 8 6 3 1 1 3 5 1 4 8 5 6 2 6 10 7 4 8 1 3 15 20 19 18
17 17 17 17 18 18 18 17 15 13 12 13 13 14 5 1 7 4 5 2 4 5 5 5 2 2 3 4 6 5 6 7 9 4 3 12 10 5 11 2 12 16 19 19 17
18 18 19 19 19 18 18 18 15 12 11 11 11 12 1 6 1 3 7 4 1 1 2 4 3 1 1 2 2 8 10 11 5 4 8 10 6 6 8 11 15 18 18 17 18
16 19 18 19 21 20 19 18 16 12 10 9 8 3 2 12 3 8 5 3 2 3 3 3 4 3 0 4 2 7 8 7 10 3 2 7 4 10 8 15 15 15 14 15 16
15 17 18 19 20 21 20 19 17 12 8 7 5 2 7 2 5 10 3 5 5 5 3 2 4 2 1 4 2 4 2 5 6 6 3 5 5 2 11 16 15 14 12 13 16
16 16 18 20 20 21 20 21 13 2 3 2 1 1 8 7 4 4 7 6 6 3 2 5 3 2 2 2 1 7 3 5 5 4 4 3 3 7 10 12 13 12 13 13 12
16 17 17 20 19 19 20 14 3 3 2 3 2 3 5 1 3 3 3 7 4 4 6 3 2 3 2 1 2 2 3 5 6 8 5 2 2 2 8 11 12 13 12 11 12
18 18 18 19 19 18 8 2 3 3 2 6 2 3 4 7 3 2 3 8 4 2 5 2 6 9 6 4 2 1 3 7 6 2 2 3 1 3 6 10 12 13 13 14 14
18 18 19 21 21 7 1 1 2 3 6 10 10 9 5 2 4 2 4 7 5 6 4 5 11 6 6 5 4 3 5 6 3 4 1 1 2 2 5 11 12 12 13 14 12
18 17 21 20 18 1 3 4 2 2 4 4 4 5 5 9 6 5 7 6 8 7 7 6 4 8 6 5 3 3 5 3 5 1 4 2 3 3 3 3 7 10 12 12 13
18 17 18 24 2 4 4 1 6 6 3 2 3 3 5 4 5 5 6 5 3 10 8 4 5 7 5 4 3 6 4 5 4 6 2 2 4 5 5 6 5 9 11 12 13
18 16 15 8 8 4 3 6 1 3 4 3 3 2 3 6 5 5 1 3 10 7 6 5 6 9 5 4 7 1 2 2 3 4 2 3 5 3 1 9 10 9 9 9 8
19 16 16 1 3 7 7 6 3 3 3 3 3 4 6 4 2 5 4 2 4 4 1 4 1 3 5 4 7 3 3 3 3 2 4 2 4 6 5 8 7 7 8 7 4
21 18 10 3 2 2 4 3 2 4 3 3 2 4 5 7 4 5 10 10 9 9 9 3 7 2 3 3 4 4 5 3 4 3 3 2 4 9 6 5 6 14 10 6 5
23 22 3 5 3 4 2 3 3 2 3 2 4 1 8 7 4 4 10 12 3 6 7 9 9 11 7 11 4 7 5 3 5 6 4 3 5 1 2 2 6 8 6 8 7
22 2 2 2 8 2 3 4 3 4 2 9 2 3 5 4 3 5 9 14 15 9 6 9 8 2 5 3 4 7 5 3 6 1 4 0 4 11 8 6 6 9 9 13 10
6 4 2 3 9 3 3 5 3 4 3 2 3 2 6 8 9 7 10 9 10 12 8 5 7 2 4 5 5 2 7 4 1 4 6 3 4 6 2 11 9 11 14 12 10
3 3 7 4 4 2 5 5 4 7 5 3 2 4 2 3 8 6 9 5 15 12 8 7 2 5 1 5 6 5 5 3 5 2 3 3 4 1 3 4 14 13 14 14 12
4 1 2 3 3 1 4 4 2 4 3 6 4 8 4 2 4 8 13 11 15 17 12 7 3 3 2 5 1 3 3 7 5 6 0 3 3 2 5 5 11 10 10 14 14
5 3 1 3 3 3 1 3 4 5 5 4 4 7 3 4 5 9 10 6 14 15 17 9 5 4 6 5 5 3 5 3 5 3 7 3 2 3 2 6 9 11 16 15 15
3 1 2 1 1 0 1 2 3 5 7 5 5 1 3 5 10 3 6 5 15 18 12 16 5 6 6 2 1 6 7 8 6 5 7 6 8 4 6 8 11 11 16 17 16
1 2 1 2 3 2 2 2 4 4 4 2 2 3 6 4 3 8 8 4 7 7 7 13 12 4 1 3 4 4 8 11 7 1 5 3 6 4 1 9 15 14 16 17 17
3 3 2 2 3 3 3 3 4 5 3 2 3 10 6 3 6 6 4 6 6 5 9 5 5 4 1 2 6 4 6 6 5 3 7 3 7 1 3 6 13 15 18 19 18
1 2 3 0 1 3 3 2 1 5 3 2 3 4 6 4 1 3 5 5 2 11 9 10 9 6 5 2 5 5 11 9 4 4 4 7 3 4 2 9 15 17 19 19 21
Wind_Direction
358 353 351 348 349 346 342 340 334 335 331 330 330 327 330 333 312 216 274 294 187 155 140 136 199 91 142 209 198 141 180 239 255 210 247 155 147 142 127 143 166 99 131 135 145
354 353 351 347 342 343 341 337 336 333 330 329 327 324 327 334 303 267 275 284 178 152 153 326 338 133 200 104 141 68 330 266 264 250 227 181 157 156 166 161 147 85 94 133 147
353 346 343 342 342 338 339 336 334 330 328 327 325 324 323 322 290 148 318 280 175 182 250 203 307 289 314 153 152 161 241 283 298 241 231 172 169 166 163 202 202 173 148 152 159
350 348 346 340 337 339 334 334 331 328 325 326 320 324 321 290 249 152 295 279 170 190 180 162 240 271 335 351 10 270 251 261 292 207 168 161 157 198 204 305 215 160 158 160 170
346 345 345 339 339 333 336 332 329 325 322 323 319 326 317 258 247 139 34 123 143 179 187 178 172 148 336 324 317 212 312 298 291 195 197 145 182 195 213 1 130 141 160 169 180
343 344 344 341 338 333 331 331 325 322 317 316 317 318 246 239 116 111 8 339 64 185 163 177 164 171 236 294 300 310 306 302 338 204 149 162 183 184 191 137 139 151 173 176 186
342 348 342 338 335 333 330 327 321 313 305 300 308 300 219 242 151 313 303 215 234 251 214 207 180 200 255 320 329 297 325 44 26 353 8 125 146 229 151 157 153 163 181 187 192
338 344 342 337 333 330 327 324 312 296 283 285 291 249 253 236 299 284 237 246 231 231 242 240 179 108 258 318 316 352 35 6 10 9 44 181 252 208 165 167 166 170 189 196 205
336 335 337 338 333 328 324 321 315 280 203 248 209 308 264 313 254 285 209 197 165 180 212 127 148 76 149 339 89 19 28 342 315 17 320 171 284 353 175 185 173 179 197 207 211
333 332 330 335 331 327 321 312 303 123 145 195 248 270 250 357 301 283 186 179 169 145 120 153 101 154 114 289 306 359 350 313 308 346 2 208 186 27 180 192 192 192 201 213 218
332 332 329 327 330 326 326 185 219 188 200 222 180 263 295 316 250 226 190 142 125 98 184 114 198 213 195 161 124 170 282 301 327 345 21 6 314 333 199 202 203 211 210 221 223
328 329 329 328 334 343 210 228 85 35 298 234 240 269 263 342 296 276 184 150 156 178 150 170 210 177 158 173 183 197 287 306 275 351 271 95 19 316 227 216 216 214 224 231 234
325 328 331 325 328 254 310 236 63 198 262 284 194 229 233 178 217 239 195 138 157 165 184 198 145 166 195 160 213 215 262 297 306 78 74 149 268 244 222 244 209 222 236 239 245
323 328 333 330 205 340 259 86 309 206 288 238 221 252 166 191 224 210 202 159 135 191 166 216 151 198 185 229 205 277 203 275 242 197 244 304 276 253 222 255 224 223 227 236 236
320 324 330 334 310 257 12 333 238 238 299 101 159 81 134 210 121 178 170 145 166 154 191 160 189 193 205 226 180 281 199 15 103 136 216 157 258 273 271 242 228 204 225 241 242
314 318 329 190 226 257 311 309 216 236 256 26 127 164 169 211 155 117 160 112 124 142 166 197 174 227 204 182 196 146 208 93 97 125 250 95 259 268 221 237 211 198 219 221 231
312 310 300 209 266 22 319 193 211 234 334 42 3 180 189 179 175 151 170 174 181 182 199 207 219 182 190 237 164 176 194 184 211 194 278 122 217 264 277 251 235 183 191 194 162
315 314 196 214 295 290 281 192 225 253 292 333 323 203 200 173 178 133 157 181 156 188 166 199 209 217 171 219 241 190 242 232 240 253 300 176 237 248 321 191 140 140 164 171 171
316 332 219 265 214 257 194 195 232 210 326 328 0 192 197 217 218 174 183 197 199 202 187 186 230 203 201 130 227 148 197 64 117 113 253 312 259 262 224 190 179 163 169 182 173
320 322 327 19 166 183 186 227 236 231 296 270 293 223 200 194 196 200 183 180 193 203 215 170 206 183 122 136 72 299 128 172 170 215 250 229 271 260 198 205 205 180 189 177 154
291 308 10 130 202 182 207 228 247 246 234 274 280 281 238 186 214 194 200 205 199 193 200 166 247 131 175 206 157 145 189 67 107 298 251 273 281 257 289 244 190 197 193 162 138
322 206 73 243 185 339 197 199 241 268 208 266 266 242 238 189 229 214 208 224 185 162 191 189 177 217 213 109 30 216 177 206 227 183 319 331 295 210 266 221 187 181 163 150 143
333 294 94 263 213 187 239 249 251 251 247 233 245 222 207 251 231 212 196 227 166 178 173 170 217 179 155 131 170 213 176 169 113 144 183 217 288 161 71 151 170 147 150 154 143
287 196 132 122 353 160 75 255 259 239 254 233 266 197 330 280 229 259 225 171 193 186 176 167 165 219 186 147 97 193 176 179 235 192 152 231 299 120 148 166 156 154 168 159 153
274 58 33 172 186 265 253 297 281 288 220 248 200 21 332 282 271 213 219 141 151 141 144 185 211 198 193 280 234 266 187 176 215 185 241 75 222 7 326 201 180 162 161 162 159
313 328 355 287 283 250 178 211 237 300 259 292 328 337 52 34 317 302 228 178 170 173 159 196 147 157 122 347 221 238 181 187 221 197 262 258 278 139 133 162 176 179 172 172 162
8 262 283 152 194 234 208 225 191 335 234 275 328 306 30 31 282 47 45 327 200 160 152 169 151 172 217 67 163 215 206 198 191 202 225 225 247 341 189 185 193 191 192 175 166